{"data":{"norad_id":61243,"epoch":"2026-09-21T21:39:45.958464Z","epoch_age_seconds":71075,"freshness":"FRESH","line1":"1 61243U 24175A   26264.90261526 -.00001110  00000+0 -43008-5 0  9990","line2":"2 61243  53.1593 169.0305 0001430  85.8510 274.2672 15.69698079114188","mean_motion":15.69698079,"eccentricity":0.000143,"inclination_deg":53.1593,"raan_deg":169.0305,"arg_perigee_deg":85.851,"mean_anomaly_deg":274.2672,"bstar":-4.3008e-6,"rev_number":11418,"period_min":91.737386906747,"perigee_km":358.79734458001,"apogee_km":360.72438336911,"semimajor_km":6737.8978639746,"source":"CELESTRAK","updated_at":"2026-09-22T09:00:49.347076Z"}}